Ely, NV

1:00 PM PDT on April 27, 2017 (GMT -0700)
Ely

Weather History for KELY - March, 2013

Change the Weather History Date:

Wednesday, March 6, 2013

  Actual Average Record
Temperature  
Mean Temperature 43 °F 34 °F  
Max Temperature 53 °F 48 °F 69 °F (1972)
Min Temperature 33 °F 21 °F -6 °F (1945)
Degree Days  
Heating Degree Days 22 31  
Month to date heating degree days 155 189  
Since 1 July heating degree days 5374 5526  
Cooling Degree Days 0 0  
Month to date cooling degree days 0 0  
Year to date cooling degree days 0 0  
Moisture  
Dew Point 24 °F    
Average Humidity 50    
Maximum Humidity 75    
Minimum Humidity 24    
Precipitation  
Precipitation 0.00 in 0.03 in 0.37 in (1962)
Month to date precipitation 0.02 0.18  
Year to date precipitation 1.47 1.63  
Snow  
Snow 0.00 in 0.30 in 4.40 in (1962)
Month to date snowfall 0.0 1.7  
Since 1 July snowfall 55.4 36.6  
Snow Depth T in    
Sea Level Pressure  
Sea Level Pressure 29.74 in    
Wind  
Wind Speed 17 mph (SSW)    
Max Wind Speed 30 mph    
Max Gust Speed 41 mph    
Visibility 10 miles    
Events      
T = Trace of Precipitation, MM = Missing Value Source: NWS Daily Summary

Daily Weather History Graph

Daily Weather History Graph

Search for Another Location

Airport or City:

Trip Planner

Search our weather history database for the weather conditions in past years. The results will help you decide how hot, cold, wet, or windy it might be!

Date:

Astronomy

Mar. 06, 2013 Rise Set
Actual Time 6:04 AM PST 5:37 PM PST
Civil Twilight 5:37 AM PST 6:04 PM PST
Nautical Twilight 5:06 AM PST 6:35 PM PST
Astronomical Twilight 4:35 AM PST 7:06 PM PST
Moon 2:15 AM PST (3/6) 12:25 PM PST (3/6)
Length of Visible Light 12h 26m
Length of Day
11h 33m
Waning Crescent, 29% of the Moon is Illuminated
Mar 6
Waning Crescent
Mar 11
New
Mar 19
First Quarter
Mar 27
Full
Apr 2
Last Quarter

Hourly Weather History & Observations

Time (PST) Temp. Windchill Dew Point Humidity Pressure Visibility Wind Dir Wind Speed Gust Speed Precip Events Conditions
12:53 AM 41.0 °F 30.7 °F 26.1 °F 55% 29.74 in 10.0 mi SSE 25.3 mph 35.7 mph N/A   Clear
1:53 AM 39.9 °F 29.2 °F 27.0 °F 60% 29.74 in 10.0 mi SSE 25.3 mph 32.2 mph N/A   Partly Cloudy
2:53 AM 39.9 °F 30.8 °F 27.0 °F 60% 29.72 in 10.0 mi SSE 18.4 mph 29.9 mph N/A   Mostly Cloudy
3:53 AM 39.2 °F 29.6 °F 26.6 °F 61% 29.83 in 10.0 mi SSE 19.6 mph 28.8 mph N/A   Mostly Cloudy
4:53 AM 37.0 °F 28.1 °F 28.0 °F 70% 29.75 in 10.0 mi SSW 15.0 mph 24.2 mph N/A   Mostly Cloudy
5:53 AM 37.9 °F 30.5 °F 28.0 °F 68% 29.76 in 10.0 mi SSE 11.5 mph 21.9 mph N/A   Overcast
6:53 AM 39.9 °F 31.1 °F 27.0 °F 60% 29.79 in 10.0 mi SSE 17.3 mph 24.2 mph N/A   Overcast
7:53 AM 44.1 °F 34.8 °F 25.0 °F 47% 29.74 in 10.0 mi SSE 25.3 mph 32.2 mph N/A   Partly Cloudy
8:53 AM 45.0 °F 35.6 °F 24.1 °F 44% 29.75 in 10.0 mi SSE 27.6 mph 34.5 mph N/A   Clear
9:53 AM 46.9 °F - 23.0 °F 39% 29.72 in 10.0 mi South 24.2 mph 31.1 mph N/A   Clear
10:53 AM 48.9 °F - 24.1 °F 38% 29.71 in 10.0 mi South 21.9 mph - N/A   Clear
11:53 AM 50.0 °F - 24.1 °F 36% 29.69 in 10.0 mi SSW 20.7 mph 34.5 mph N/A   Clear
12:53 PM 51.1 °F - 24.1 °F 35% 29.65 in 10.0 mi South 17.3 mph 31.1 mph N/A   Clear
1:53 PM 52.0 °F - 21.9 °F 31% 29.65 in 10.0 mi SSW 25.3 mph 35.7 mph N/A   Clear
2:53 PM 52.0 °F - 16.0 °F 24% 29.65 in 10.0 mi SSW 16.1 mph 34.5 mph N/A   Clear
3:53 PM 48.9 °F - 17.1 °F 28% 29.67 in 10.0 mi SW 21.9 mph 26.5 mph N/A   Partly Cloudy
4:53 PM 48.0 °F - 16.0 °F 28% 29.71 in 10.0 mi South 25.3 mph 36.8 mph N/A   Overcast
5:53 PM 43.0 °F 36.4 °F 21.9 °F 43% 29.74 in 10.0 mi WNW 12.7 mph - N/A   Overcast
6:53 PM 39.0 °F 33.4 °F 25.0 °F 57% 29.79 in 10.0 mi WNW 8.1 mph - N/A   Overcast
7:53 PM 39.0 °F 35.7 °F 26.1 °F 60% 29.79 in 10.0 mi NW 4.6 mph - N/A   Overcast
8:53 PM 36.0 °F 30.3 °F 27.0 °F 70% 29.81 in 10.0 mi NW 6.9 mph - N/A   Overcast
9:53 PM 35.6 °F 30.7 °F 26.6 °F 70% 29.90 in 10.0 mi NW 5.8 mph - N/A   Overcast
10:53 PM 33.1 °F 28.7 °F 26.1 °F 75% 29.82 in 10.0 mi WNW 4.6 mph - N/A   Mostly Cloudy
11:53 PM 33.1 °F 27.7 °F 27.0 °F 78% 29.81 in 10.0 mi NW 5.8 mph - N/A   Overcast